sat.trackr.live / text

‹ back to catalog

STARLINK-11463 [DTC]

NORAD 62066 · 2024-217K

PAYLOAD ACTIVE UNKNOWN

§ Identity

Operator
Country
US
Launch date
2024-11-24
Launch site
AFWTR
Launch vehicle
Mass (kg)
RCS (m²)

Purposes: comms

External: N2YO · Heavens-Above · Gunter

§ Orbital elements

Epoch: 2026-09-21T05:10:36.029856Z

Period
91.73 min
Inclination
53.1575°
Eccentricity
0.0002335
Mean motion
15.69746748 rev/d
Perigee alt
358.0 km
Apogee alt
361.2 km
Semi-major
6,737.8 km
B*
8.7310e-4
RAAN
187.3474°
Arg perigee
163.6513°
Mean anomaly
196.4580°
Rev number
10,588

§ Raw data

STARLINK-11463 [DTC]1 62066U 24217K   26264.21569479  .00106725  00000+0  87310-3 0  99912 62066  53.1575 187.3474 0002335 163.6513 196.4580 15.69746748105882

JSON: /api/v1/satellites/62066 · /tle

For live sub-satellite position, see the globe view (requires WebGL).

§ Visibility from observer

Set your observer location to see the next 7 days of passes ≥ 10°. The values pass through the URL so the page stays shareable.

No JS? Fill the form by hand. The geolocation button needs JavaScript.